Home   Weather   Worcester   Past weeks
Flag for USA

Past Weather in Worcester, Massachusetts, USA — Yesterday and Last 2 Weeks

Now
54 °F

Sunny.


Feels Like: 52 °F
Forecast: 55 / 37 °F
Wind: 8 mph from Northwest

Location: Worcester Regional Airport

Current Time: Oct 19, 2019 at 3:58:54 pm

Latest Report: Oct 19, 2019 at 2:54 pm


Visibility: 10 mi

Pressure: 29.99 "Hg

Humidity: 45%

Dew Point: 33 °F

Location of WorcesterLocation

Past Weather in Worcester — Graph

°F

Worcester Temperature Yesterday

Maximum temperature yesterday: 52 °F (at 12:54 pm)
Minimum temperature yesterday: 41 °F (at 11:12 pm)
Average temperature yesterday: 47 °F

High & Low Weather Summary for the Past Weeks

 TemperatureHumidityPressure
High71 °F (Oct 7, 1:54 pm)100% (Oct 7, 11:08 pm)30.46 "Hg (Oct 7, 11:08 pm)
Low34 °F (Oct 19, 5:54 am)39% (Oct 5, 2:54 pm)28.82 "Hg (Oct 17, 3:54 am)
Average51 °F78%30.01 "Hg
* Reported Oct 4 2:54 pm — Oct 19 2:54 pm, Worcester. Weather by CustomWeather, © 2019

Note: Actual official high and low records may vary slightly from our data, if they occured in-between our weather recording intervals... More about our weather records

Advertising

Worcester Weather History for the Previous 24 Hours

Scroll right to see more
 ConditionsComfort  
Time TempWeatherWind HumidityBarometerVisibility
2:54 pm
Sat, Oct 19
54 °FSunny.8 mph45%29.99 "Hg10 mi
1:54 pm53 °FSunny.10 mph51%30.00 "Hg10 mi
12:54 pm52 °FSunny.10 mph50%30.01 "Hg10 mi
11:54 am48 °FSunny.7 mph56%30.03 "Hg10 mi
10:54 am46 °FSunny.10 mph63%30.03 "Hg10 mi
9:54 am43 °FSunny.12 mph68%30.03 "Hg10 mi
8:54 am41 °FSunny.7 mph70%30.02 "Hg10 mi
7:54 am35 °FSunny.7 mph88%30.01 "Hg10 mi
6:54 am35 °FClear.5 mph88%30.01 "Hg10 mi
5:54 am34 °FClear.6 mph92%29.99 "Hg10 mi
4:54 am35 °FClear.7 mph88%29.99 "Hg10 mi
3:54 am36 °FClear.5 mph85%29.97 "Hg10 mi
2:54 am39 °FClear.8 mph79%29.96 "Hg10 mi
1:54 am39 °FClear.7 mph79%29.96 "Hg10 mi
12:54 am39 °FClear.7 mph79%29.95 "Hg10 mi
11:54 pm
Fri, Oct 18
41 °FClear.6 mph76%29.93 "Hg10 mi
11:25 pm41 °FPassing clouds.13 mph76%29.91 "Hg10 mi
11:12 pm41 °FPassing clouds.12 mph76%29.91 "Hg10 mi
9:54 pm42 °FClear.5 mph73%29.92 "Hg10 mi
8:54 pm44 °FClear.7 mph71%29.90 "Hg10 mi
7:54 pm44 °FClear.12 mph73%29.88 "Hg10 mi
6:54 pm46 °FPassing clouds.9 mph71%29.86 "Hg10 mi
5:54 pm48 °FOvercast.8 mph68%29.84 "Hg10 mi
4:54 pm49 °FPartly sunny.16 mph66%29.81 "Hg10 mi
3:54 pm52 °FOvercast.16 mph59%29.79 "Hg10 mi
Weather by CustomWeather, © 2019

See weather overview